AMOS-3

Last updated on June 17, 2019, 3:36 a.m. UTC

1 32794U 08022A   19167.14400258 -.00000043  00000-0  00000+0 0  9992
2 32794   0.0449 130.9537 0002208 317.3710 223.5006  1.00272341 40794
UTC
Height (km)
Latitude
Longitude
Inclination
Orbital Period
UTC large
Height (km)
Speed (km/s)
/
Latitude / Longitude
Inclination (degrees)
Orbital Period (minutes)
Azimuth
Elevation
Range (km)
Doppler Factor
iOS Compass Heading
iOS Angle

Next 30 passes for location: Hong Kong

Rise time Rise Azimuth (degrees) Set time Set Azimuth (degrees) Duration Max altitude (degrees)

No matching passes for this satellites